Theta_e
287 287 286 286 286 285 285 285 285 285 285 286 286 286 287 287 286 287 287 287 287 288 289 289 289 289 289 289 290 291 291 292 294 294 295 295 295 295
287 286 286 286 285 285 285 284 285 285 285 286 286 286 286 286 286 286 286 287 287 288 288 288 288 287 287 288 289 289 290 291 292 292 292 293 294 294
287 286 286 286 285 285 284 284 284 285 285 285 286 286 286 286 286 286 286 286 286 286 286 286 285 286 286 287 288 288 289 289 290 290 291 292 292 293
286 286 286 285 285 285 284 284 284 284 284 285 286 285 285 285 285 286 287 285 285 284 284 284 285 286 286 287 287 287 287 288 289 289 290 291 291 292
286 285 285 285 285 284 285 285 284 285 286 285 285 285 285 286 285 285 283 283 283 282 283 283 284 285 285 285 285 286 287 287 288 288 288 289 289 290
285 285 285 284 284 285 285 285 286 285 285 285 286 286 285 285 285 283 282 282 282 282 283 283 283 283 283 284 284 284 285 285 285 286 287 288 288 289
284 284 284 284 285 285 285 285 285 285 285 286 285 285 283 283 282 282 282 282 283 282 281 281 281 281 282 282 282 283 283 284 285 286 287 288 288 289
284 283 283 283 284 284 284 284 285 286 286 286 283 283 281 281 282 282 283 282 282 281 281 282 281 281 281 281 281 283 284 285 285 286 286 287 288 289
284 283 283 283 284 284 284 284 285 285 284 283 282 281 281 282 283 282 282 282 282 282 281 281 281 280 280 281 281 282 283 284 285 285 286 287 288 288
284 284 283 284 284 284 285 285 283 282 281 281 281 282 283 282 282 282 281 282 281 281 280 281 280 280 280 280 281 282 283 284 284 285 286 287 288 289
284 284 284 284 283 285 285 283 282 281 280 282 283 281 281 281 281 282 281 280 280 280 280 280 280 280 280 281 281 282 283 284 284 285 286 286 287 288
285 284 283 283 284 285 283 282 280 280 281 282 279 278 279 279 280 280 280 280 280 280 280 280 280 281 282 282 282 282 282 282 283 284 285 286 287 288
283 283 283 283 283 282 282 280 280 283 281 278 278 279 279 280 279 279 279 280 280 280 280 281 281 280 281 281 282 282 282 282 282 282 283 284 286 287
283 283 282 283 281 281 280 280 281 281 278 278 279 279 279 279 279 279 279 279 279 279 280 280 280 281 281 282 282 283 282 282 281 281 282 284 286 287
283 282 281 280 279 279 279 280 279 278 278 279 279 279 278 278 278 279 279 279 279 280 280 281 281 281 282 283 282 282 283 283 282 283 285 286 287 287
282 280 279 278 278 278 278 278 277 278 279 279 278 278 278 278 278 279 279 279 280 280 281 282 283 283 282 283 281 281 282 283 284 285 288 290 290 290
281 278 277 277 277 277 277 277 277 278 278 277 277 277 277 278 278 278 279 279 280 281 282 283 283 283 283 283 282 283 284 287 288 289 289 290 291 291
278 277 277 277 277 277 277 277 277 277 277 277 277 277 277 278 278 279 278 279 280 281 282 283 282 282 284 285 285 284 287 289 290 290 290 291 291 291
277 276 276 276 276 276 277 277 277 276 276 276 276 276 278 277 278 278 278 279 280 282 283 283 283 283 284 286 285 288 286 290 290 290 290 290 291 290
276 276 276 276 276 276 276 276 276 276 276 276 277 276 276 277 278 278 279 280 282 283 282 283 283 284 284 284 284 285 289 289 290 290 290 290 290 291
276 276 275 276 276 276 276 276 275 276 277 276 275 276 277 277 277 278 279 282 283 281 282 283 283 285 285 285 286 287 288 289 289 289 289 290 290 290
275 275 275 275 275 275 275 275 275 275 275 275 276 276 277 277 278 279 280 282 282 281 282 283 285 285 284 283 285 287 287 288 289 290 289 289 289 290
275 274 275 275 275 275 275 275 275 275 275 276 276 277 277 278 279 280 281 282 282 282 282 282 284 284 284 284 285 285 286 286 287 289 289 289 289 289
Wind_Speed
17 16 14 18 18 20 20 19 14 10 14 14 17 22 26 29 30 30 33 32 33 34 35 37 37 42 45 47 47 46 47 45 43 41 42 42 43 44
19 18 19 18 20 21 22 22 20 19 12 29 29 29 29 27 30 33 34 34 36 33 33 38 43 47 48 48 48 47 47 46 47 47 47 46 47 48
21 20 20 19 20 24 24 22 21 21 14 35 33 33 35 35 32 31 31 28 27 32 37 43 46 43 42 42 41 42 45 45 46 46 48 48 48 48
23 22 21 22 22 25 25 23 24 26 24 17 33 37 37 35 36 34 25 27 27 31 39 42 40 41 41 39 41 43 41 41 42 44 42 41 42 44
23 23 24 23 26 26 28 27 25 23 22 27 31 36 36 33 33 24 31 31 32 33 37 35 35 35 39 45 43 41 40 41 42 41 42 42 43 44
22 22 22 23 25 28 25 25 22 27 28 28 29 27 31 29 25 29 34 31 32 32 31 31 40 40 40 39 40 41 41 42 42 42 41 42 42 44
21 23 23 21 23 25 27 29 31 28 27 24 26 23 21 27 26 30 31 33 27 30 35 35 31 31 34 38 39 40 38 37 38 39 40 41 41 42
25 25 25 22 23 27 30 30 32 33 31 20 24 21 25 28 32 30 25 27 14 32 23 36 32 34 35 34 36 37 38 40 41 41 41 41 42 43
25 28 28 25 28 31 32 34 29 24 31 30 29 26 30 30 30 31 29 26 26 36 28 30 32 32 34 35 36 38 39 40 40 40 40 40 41 42
27 27 27 30 29 32 34 24 29 27 27 31 29 32 32 35 35 31 32 33 31 32 26 13 31 33 36 36 38 39 39 37 35 36 37 39 39 38
25 24 23 26 29 34 32 30 28 29 31 29 28 33 36 32 32 31 25 22 15 25 29 24 28 29 34 38 38 33 33 33 35 37 38 40 39 39
21 22 21 28 32 33 33 30 24 31 30 26 32 31 31 31 29 27 27 19 14 15 23 20 27 22 9 27 26 32 31 33 35 34 36 38 39 38
24 23 26 28 33 34 32 25 27 33 28 29 28 30 29 29 29 29 29 28 26 22 36 31 25 26 15 11 25 28 30 34 33 34 35 35 37 37
23 27 28 32 33 31 27 26 30 29 27 26 27 27 28 30 32 33 35 34 33 35 41 38 25 25 19 13 14 25 31 31 29 31 30 33 34 35
24 30 29 29 28 25 25 27 27 24 24 23 24 27 29 33 34 32 31 31 31 32 33 33 30 30 24 14 11 21 22 24 29 27 28 27 26 26
26 21 26 24 23 24 25 24 24 23 25 24 26 30 31 30 30 29 29 30 27 29 28 26 26 26 23 22 19 18 26 8 25 29 26 25 21 17
28 23 22 22 23 24 25 24 25 25 25 25 26 28 29 28 28 29 26 27 19 20 26 28 30 27 23 22 10 17 22 22 22 25 23 19 17 18
21 19 20 21 22 23 24 26 26 26 26 27 27 27 27 27 27 28 25 22 19 21 21 23 26 24 17 9 11 17 19 20 26 24 23 13 10 24
17 19 20 22 23 25 25 25 26 28 28 26 26 26 26 27 26 25 24 21 20 20 20 21 19 11 8 7 9 21 21 24 25 21 22 21 10 25
18 20 22 23 25 26 26 26 28 29 27 27 26 27 25 23 24 22 21 20 18 18 17 19 19 17 6 4 4 16 33 28 22 22 23 15 23 24
21 23 23 24 26 27 28 28 27 27 28 27 27 25 26 23 24 22 22 24 22 15 7 12 22 22 21 12 7 9 26 33 34 32 31 16 12 21
23 24 26 26 27 28 29 29 29 29 28 26 26 26 26 23 22 22 21 18 17 14 13 19 22 21 17 7 6 7 18 25 30 39 47 42 21 13
25 26 28 29 29 29 29 28 28 29 28 27 27 27 25 23 24 23 20 19 16 14 14 12 18 15 15 9 11 9 16 20 20 23 34 44 43 47
Wind_Direction
329 326 315 319 322 323 315 302 290 306 305 309 306 302 299 295 294 292 289 286 289 288 289 293 293 293 291 288 285 284 280 279 274 274 274 273 270 269
329 321 314 315 320 323 314 304 286 281 290 303 304 302 301 294 290 291 287 288 286 285 288 291 290 290 288 286 283 281 280 277 276 275 272 271 269 271
326 320 312 312 315 320 321 307 287 278 279 296 299 303 302 298 295 290 286 277 283 286 290 290 291 289 286 284 285 284 280 278 277 277 272 269 268 266
325 320 313 311 308 316 316 304 291 285 278 283 296 302 299 300 298 299 289 290 282 282 288 290 290 287 288 289 288 285 280 277 275 273 272 273 270 267
327 320 314 307 306 314 313 301 292 290 290 291 292 294 295 296 300 299 300 301 293 288 291 291 288 288 289 288 287 284 280 281 281 279 276 274 272 268
329 328 324 318 315 314 310 305 308 302 298 292 289 293 297 305 304 304 302 301 295 294 290 289 290 289 287 287 286 284 283 282 278 275 272 269 267 264
332 328 326 320 315 315 312 315 308 302 296 295 296 303 316 313 306 304 296 298 298 297 293 292 289 288 284 283 282 282 282 279 275 273 271 269 267 262
332 333 331 322 317 315 313 308 305 304 305 315 316 311 305 305 301 297 300 303 299 301 294 293 295 290 286 283 281 283 282 280 278 275 272 270 268 266
332 329 324 316 316 317 306 301 302 319 312 312 303 300 300 300 302 302 298 293 292 298 300 289 295 287 287 285 286 285 283 282 280 277 274 270 266 263
325 322 317 315 316 314 311 327 322 316 310 306 302 299 300 305 304 302 299 296 294 294 295 285 293 288 291 287 286 286 284 285 284 279 275 270 267 262
318 316 315 314 315 318 325 322 319 314 312 308 308 307 306 306 307 308 304 304 299 300 303 291 292 290 292 287 283 283 284 284 285 283 279 274 270 267
319 319 320 321 319 325 325 324 322 312 311 321 319 315 312 307 310 306 300 295 297 300 304 298 297 299 297 289 292 291 284 282 286 283 279 272 268 266
326 324 321 322 324 325 322 325 311 318 325 322 314 311 311 311 310 307 302 295 295 291 297 302 299 297 288 302 297 296 291 286 283 282 279 272 267 259
325 322 318 323 324 322 323 320 322 324 320 314 312 313 314 312 311 309 306 302 294 287 296 296 286 291 290 293 297 304 303 294 284 278 276 274 270 261
324 318 322 323 324 323 323 323 323 318 316 313 315 311 310 309 309 310 310 309 306 301 302 303 291 290 288 286 288 296 305 309 298 285 287 281 269 256
324 327 325 325 323 321 321 321 320 320 319 316 311 309 311 313 313 315 314 316 315 315 320 319 313 307 298 289 285 289 299 299 297 299 301 301 302 294
329 330 326 325 324 323 321 321 322 322 320 317 314 311 311 314 314 318 316 317 314 314 320 326 331 326 314 292 292 296 308 308 315 322 324 319 304 322
331 325 321 322 319 318 319 319 319 320 316 315 312 310 309 313 316 318 320 319 316 318 319 327 331 339 343 320 290 295 329 331 334 335 340 331 323 333
327 321 318 318 315 315 314 314 313 314 313 310 308 307 311 311 316 316 317 319 319 321 325 325 331 336 336 333 300 2 345 348 349 347 344 344 336 337
326 320 316 315 313 312 313 312 312 313 314 311 310 310 309 310 312 314 315 315 317 326 326 335 341 337 334 307 311 312 2 359 3 4 353 348 8 27
322 318 315 312 310 310 311 311 310 309 310 309 307 308 309 310 309 310 312 319 328 324 325 336 335 343 359 357 347 343 355 17 24 24 15 10 22 37
316 315 314 311 309 310 310 310 310 310 310 309 306 306 307 308 304 307 310 312 318 318 315 330 351 3 6 349 351 344 352 3 22 34 35 38 44 44
315 315 311 310 310 310 310 309 308 305 305 304 304 305 307 306 307 305 305 312 318 324 340 331 350 5 5 351 6 350 358 3 1 20 32 35 44 58